SCP
0 0 0 0 0 0 0 0 0 0 0 0 0 0 0 0 0 0 0 0 0 0 0 0 0 0 0 0 0 0 0 0 0 0 0 0 0 0 0 0 0 0 0
0 0 0 0 0 0 0 0 0 0 0 0 0 0 0 0 0 0 0 0 0 0 0 0 0 0 0 0 0 0 0 0 0 0 0 0 0 0 0 0 0 0 0
0 0 0 0 0 0 0 0 0 0 0 0 0 0 0 0 0 0 0 0 0 0 0 0 0 0 0 0 0 0 0 0 0 0 0 0 0 0 0 0 0 0 0
0 0 0 0 0 0 0 0 0 0 0 0 0 0 0 0 0 0 0 0 0 0 0 0 0 0 0 0 0 0 0 0 0 0 0 0 0 0 0 0 0 0 0
0 0 0 0 0 0 0 0 0 0 0 0 0 0 0 0 0 0 0 0 0 0 0 0 0 0 0 0 0 0 0 0 0 0 0 0 0 0 0 0 0 0 0
0 0 0 0 0 0 0 0 0 0 0 0 0 0 0 0 0 0 0 0 0 0 0 0 0 0 0 0 0 0 0 0 0 0 0 0 0 0 0 0 0 0 0
0 0 0 0 0 0 0 0 0 0 0 0 0 0 0 0 0 0 0 0 0 0 0 0 0 0 0 0 0 0 0 0 0 0 0 0 0 0 0 0 0 0 0
0 0 0 0 0 0 0 0 0 0 0 0 0 0 0 0 0 0 0 0 0 0 0 0 0 0 0 0 0 0 0 0 0 0 0 0 0 0 0 0 0 0 0
0 0 0 0 0 0 0 0 0 0 0 0 0 0 0 0 0 -0 -0 0 0 0 0 0 0 0 0 0 0 0 0 0 0 0 0 0 0 0 0 0 0 0 0
0 0 0 0 0 0 0 0 0 0 0 0 0 0 0 0 0 -0 0 0 0 0 0 0 0 0 0 0 0 0 0 0 0 0 0 0 0 0 0 0 0 0 0
0 0 0 0 0 0 0 0 0 0 0 0 0 0 0 0 0 -0 -0 0 0 0 0 0 0 0 -0 -0 0 -0 -0 -0 0 0 0 0 0 0 0 0 0 -0 0
0 0 0 0 0 0 0 0 0 0 0 0 0 0 0 0 0 0 0 0 -0 -0 0 -0 -0 -0 -0 0 0 0 -0 0 0 0 0 0 0 -0 -0 0 -0 0 0
0 0 0 0 0 0 0 0 0 -0 0 0 -0 -0 0 -0 0 0 0 0 0 -0 -0 -0 -0 -0 0 -0 -0 -0 -0 0 -0 -0 -0 -0 0 -0 -0 0 0 0 0
0 0 0 0 0 0 0 0 -0 -0 -0 -0 -0 -0 -0 0 0 0 0 0 0 0 -0 -0 0 0 0 0 0 -0 -0 -0 -0 -0 -0 -0 -0 -0 0 0 0 0 0
0 0 0 0 0 0 0 -0 -0 -0 -0 -0 -0 -0 -0 -0 -0 0 0 0 0 0 0 -0 -0 -0 -0 -0 -0 -0 0 -0 -0 -0 -0 -0 0 -0 0 0 0 0 0
0 0 0 0 0 -0 -0 -0 -0 -0 -0 -0 -0 -0 -0 -0 -0 -0 -0 -0 -0 -0 -0 -0 -0 -0 -0 -0 0 0 0 0 -0 -0 -0 -0 0 0 0 0 0 0 0
0 0 0 0 0 0 -0 -0 -0 0 -0 -0 -0 -0 -0 -0 -0 -0 -0 -0 -0 -0 -0 -0 -0 -0 -0 0 0 0 -0 -0 -0 -0 0 0 -0 0 0 0 0 0 0
0 0 0 0 0 0 0 0 -0 -0 0 0 -0 -0 -0 -0 -0 -0 -0 -0 -0 -0 -0 -0 -0 0 0 -0 -0 -0 -0 -0 0 0 -0 0 0 0 0 0 0 0 0
0 0 0 0 0 0 0 0 0 0 -0 -0 0 0 0 0 0 0 0 -0 0 0 -0 0 0 0 0 -0 -0 -0 0 0 0 0 0 0 0 0 0 0 0 0 0
0 0 0 0 0 0 0 0 0 0 0 -0 -0 0 0 0 0 0 0 0 0 -0 0 -0 -0 0 0 0 0 0 0 0 0 0 0 0 0 0 0 0 0 0 0
0 0 0 0 0 0 0 0 0 0 0 0 0 0 -0 0 0 -0 -0 -0 0 0 0 0 0 0 0 0 0 0 0 0 0 0 0 0 0 0 0 0 0 0 0
0 0 0 0 0 0 0 0 0 0 0 0 0 0 0 0 0 0 0 0 0 0 0 0 0 0 0 0 0 0 0 0 0 0 0 0 0 0 0 0 0 0 0
0 0 0 0 0 0 0 0 0 0 0 0 0 0 0 0 0 0 0 0 0 0 0 0 0 0 0 0 0 0 0 0 0 0 0 0 0 0 0 0 0 0 0
0 0 0 0 0 0 0 0 0 0 0 0 0 0 0 0 0 0 0 0 0 0 0 0 0 0 0 0 0 0 0 0 0 0 0 0 0 0 0 0 0 0 0
0 0 0 0 0 0 0 0 0 0 0 0 0 0 0 0 0 0 0 0 0 0 0 0 0 0 0 0 0 0 0 0 0 0 0 0 0 0 0 0 0 0 0
0 0 0 0 0 0 0 0 0 0 0 0 0 0 0 0 0 0 0 0 0 0 0 0 0 0 0 0 0 0 0 0 0 0 0 0 0 0 0 0 0 0 0
Wind_Speed_500mb
18 21 30 36 40 44 56 62 59 67 51 49 52 52 48 36 30 27 25 26 34 54 51 49 48 63 44 39 61 55 50 42 36 38 32 33 34 31 25 21 20 13 13
19 20 28 36 39 46 56 65 64 66 43 44 42 43 41 32 25 22 22 21 30 55 36 62 57 66 40 59 65 58 47 45 48 49 47 30 25 24 17 13 11 11 19
17 18 26 34 38 45 51 61 66 57 42 39 36 36 38 30 23 10 12 18 36 61 40 53 48 61 53 64 66 59 58 62 63 58 42 26 14 35 22 21 24 27 25
13 15 24 30 36 41 43 53 62 56 41 34 35 39 32 26 19 8 7 8 46 50 44 47 48 58 56 55 63 60 52 65 72 61 35 31 36 40 25 30 34 30 27
13 11 20 25 29 36 44 53 60 52 35 35 35 27 30 23 10 8 9 28 33 33 44 45 41 55 49 52 61 54 62 64 63 61 51 28 36 46 57 46 39 33 28
14 6 15 20 24 31 41 52 57 44 31 30 31 21 23 23 19 20 17 35 27 30 33 28 35 37 41 49 56 65 54 56 57 60 52 29 43 41 59 57 45 42 34
17 4 8 16 22 30 37 50 53 42 34 28 28 23 17 18 23 24 24 27 27 29 33 35 33 38 29 39 50 50 59 58 52 55 46 33 20 26 37 53 53 46 32
19 8 2 13 18 25 31 41 49 40 30 27 29 27 25 26 31 23 25 25 24 19 24 28 26 34 35 38 22 39 38 50 40 30 15 11 20 28 43 37 41 44 23
23 14 5 8 12 18 24 32 46 44 31 23 22 19 30 35 35 25 17 22 36 33 24 19 22 17 14 28 30 59 54 41 35 32 34 41 40 40 37 33 37 33 31
27 19 9 6 8 11 17 19 29 39 39 27 25 23 26 38 44 40 29 28 36 30 25 26 25 42 57 55 46 53 46 49 53 47 45 42 39 35 32 29 26 21 16
34 23 15 10 9 6 13 16 21 29 34 38 37 34 30 30 50 46 49 52 52 63 72 69 66 65 67 58 63 61 62 53 52 44 35 35 30 27 24 22 19 16 13
38 30 21 15 14 9 16 17 19 25 25 32 40 53 58 57 63 72 74 74 72 71 73 73 78 75 71 62 58 60 50 48 44 40 34 32 27 24 23 20 16 13 13
46 39 32 25 22 17 18 17 16 21 26 30 34 40 46 51 52 56 59 64 67 69 66 67 64 63 60 58 55 51 48 45 42 38 33 34 27 25 23 19 15 13 12
56 49 41 34 30 27 20 20 25 24 24 25 33 38 42 47 49 51 50 52 52 55 58 58 57 55 52 49 48 45 44 43 42 38 34 32 27 23 21 19 16 14 11
65 61 53 45 41 37 34 30 27 28 30 26 20 28 34 38 40 41 42 42 40 43 44 46 48 48 46 45 44 43 43 41 40 37 34 29 25 22 20 19 16 14 10
74 69 62 55 52 47 45 41 35 31 32 25 22 29 33 33 35 37 39 39 41 41 40 40 42 43 44 41 39 38 39 38 35 32 31 27 24 22 21 19 16 13 10
81 79 76 68 61 56 53 54 47 39 35 34 34 34 35 39 39 39 39 40 39 39 39 38 36 38 41 39 37 34 34 33 33 30 28 26 24 20 17 14 9 5 5
82 84 80 75 68 62 60 57 56 50 46 44 41 38 38 39 42 40 39 39 38 36 34 36 36 36 39 38 36 34 31 29 28 26 24 21 18 15 12 12 13 13 13
72 86 85 79 75 72 68 67 65 61 58 56 51 45 43 42 42 43 41 40 40 40 37 35 36 36 37 37 34 32 28 25 24 22 18 14 12 8 7 7 8 10 13
64 75 83 83 83 81 77 77 75 74 72 68 61 54 50 46 44 44 44 40 38 38 40 39 38 35 31 32 31 30 26 21 18 18 16 11 7 3 2 5 10 14 18
57 65 74 84 85 87 85 85 83 84 76 71 67 63 59 53 48 46 45 43 42 42 42 40 38 37 35 31 28 26 27 25 22 19 16 15 14 11 8 8 10 15 21
40 60 70 78 86 93 93 91 91 80 78 77 76 72 67 64 59 54 50 49 47 46 44 42 41 38 35 35 35 33 30 27 25 24 21 20 17 15 13 13 15 17 20
27 47 64 70 83 93 97 97 86 85 82 82 82 79 75 71 66 63 60 59 56 53 50 47 43 41 41 40 39 37 34 32 30 27 25 24 23 22 20 19 18 19 22
28 32 55 67 79 88 97 95 89 84 86 88 87 84 82 79 75 72 68 65 63 61 58 57 54 51 49 46 43 42 42 40 37 35 33 33 32 30 28 26 26 25 25
33 34 44 61 72 78 90 96 95 90 88 91 91 91 89 86 83 80 77 74 69 64 62 59 55 54 54 48 44 44 43 41 40 40 42 43 40 38 34 32 31 28 28
38 43 48 53 65 74 80 93 98 96 91 93 97 97 95 93 89 84 80 77 72 68 65 63 58 53 52 47 47 48 49 49 49 51 53 50 46 43 40 38 34 30 30
Wind_Direction_500mb
254 298 318 325 335 340 341 349 344 342 343 351 344 346 334 319 304 283 263 251 217 196 204 190 207 189 174 202 202 199 179 175 179 167 173 168 174 172 188 199 210 220 241
248 294 320 329 344 345 347 352 349 340 347 352 351 353 344 335 320 274 234 237 198 185 192 194 194 178 195 200 201 193 171 178 184 174 172 144 143 156 167 203 220 219 155
257 301 323 336 347 347 352 357 349 350 348 355 355 346 335 355 357 305 223 212 190 176 170 198 204 202 193 198 203 194 189 176 179 183 180 164 161 142 132 142 155 145 146
252 302 323 340 352 351 353 358 353 350 355 354 0 353 344 348 334 45 95 208 167 181 174 183 197 199 192 197 205 197 199 182 183 182 193 193 192 168 125 127 130 137 129
235 296 327 348 355 354 357 360 354 352 4 1 358 359 3 357 46 116 109 159 161 173 176 193 199 193 200 199 197 203 193 188 187 186 189 188 179 173 153 132 129 127 126
214 282 331 354 359 2 4 4 0 4 8 12 360 8 17 37 74 108 122 156 164 168 173 190 194 201 204 209 214 197 188 189 194 191 190 176 167 185 167 150 141 135 130
205 210 334 2 8 13 15 12 9 15 16 16 7 22 44 63 86 101 115 145 148 164 173 178 191 188 203 215 204 204 201 196 201 190 182 186 192 164 168 163 149 141 138
199 185 9 11 21 25 26 19 23 22 20 38 24 22 68 83 81 104 109 122 123 125 141 173 170 195 210 184 188 185 163 138 130 128 126 165 194 191 187 175 161 147 157
200 182 140 36 40 34 39 33 41 39 30 34 51 30 82 93 97 97 124 121 113 148 141 147 179 174 168 196 198 132 125 125 117 126 150 137 133 136 148 164 174 174 162
205 192 166 92 75 42 48 45 53 53 51 52 78 73 73 92 104 102 100 136 126 119 126 150 136 138 120 110 102 116 113 127 131 137 135 133 136 140 143 155 180 201 213
206 198 185 138 121 82 66 69 60 72 73 72 80 89 96 95 111 114 119 120 122 119 117 116 116 118 117 120 118 131 133 136 130 131 134 134 131 136 142 149 162 178 184
205 200 196 167 144 147 116 90 79 92 94 92 90 92 96 101 109 115 119 121 122 124 122 121 122 122 123 126 124 129 128 130 131 132 137 128 124 127 123 121 127 137 142
202 200 199 188 162 173 147 121 103 112 96 94 97 99 98 100 96 100 106 110 110 111 112 115 122 122 124 130 132 132 132 131 127 123 124 118 119 119 117 120 120 117 115
204 203 201 196 182 179 176 154 132 129 114 113 107 107 105 105 107 104 106 107 112 117 120 122 124 125 127 127 126 126 127 125 122 122 121 114 115 111 107 102 100 97 102
206 207 205 199 192 186 185 182 169 147 147 151 146 134 126 123 118 118 121 119 118 118 119 121 123 124 126 125 127 128 126 123 120 120 115 112 109 105 100 93 89 87 86
213 210 209 204 200 195 190 192 186 179 184 186 179 159 145 137 134 132 130 130 129 127 127 128 127 129 126 124 124 123 122 122 119 117 115 114 111 99 89 79 73 67 56
220 214 211 208 205 200 196 195 190 188 184 181 180 174 164 156 151 149 145 142 141 139 137 135 133 134 129 128 129 128 126 125 123 119 114 101 93 88 78 71 69 64 32
229 225 218 211 208 205 202 200 195 192 188 184 186 185 178 172 164 161 157 153 150 146 146 143 142 141 139 139 140 139 135 131 123 111 101 96 86 74 61 40 20 6 354
245 238 227 217 209 206 204 202 201 195 193 192 191 194 192 188 180 172 172 167 163 159 158 156 157 158 155 148 147 146 142 136 127 122 115 104 90 66 41 0 335 328 322
243 238 231 218 213 207 206 205 204 200 198 196 194 195 198 197 193 186 181 179 176 173 173 174 171 168 170 164 159 156 159 157 151 150 154 148 145 164 266 311 319 319 316
244 238 231 220 214 209 208 209 207 208 202 198 197 198 198 201 200 198 193 190 190 190 188 187 185 184 182 178 176 179 182 184 185 185 188 196 205 216 238 270 291 306 315
251 232 229 221 215 211 210 212 213 210 206 202 201 201 202 201 202 203 204 201 201 202 201 200 199 198 196 196 197 197 200 203 207 213 215 219 225 231 245 265 282 298 316
261 234 227 222 216 213 213 216 217 213 208 207 207 205 204 205 206 206 207 210 210 209 210 212 211 211 212 211 211 212 213 215 221 225 230 237 244 252 259 270 286 302 311
255 236 228 223 218 216 216 220 220 218 213 211 210 210 209 208 209 211 212 214 217 217 217 218 217 217 219 219 221 223 224 225 227 229 234 240 245 250 258 271 281 293 306
260 237 229 228 226 222 220 219 221 221 218 216 215 214 214 214 214 216 218 218 220 226 230 230 228 227 229 231 232 235 236 238 236 236 240 243 246 250 256 264 274 283 294
265 251 240 234 232 229 226 222 221 223 221 220 218 217 217 217 218 220 222 223 225 227 229 232 235 238 239 236 237 238 238 239 239 242 246 248 249 251 257 262 269 278 290
Wind_Speed_850mb
18 21 30 36 40 44 56 62 59 67 51 49 52 52 48 36 30 27 25 26 34 54 51 49 48 63 44 39 61 55 50 42 36 38 32 33 34 31 25 21 20 13 13
19 20 28 36 39 46 56 65 64 66 43 44 42 43 41 32 25 22 22 21 30 55 36 62 57 66 40 59 65 58 47 45 48 49 47 30 25 24 17 13 11 11 19
17 18 26 34 38 45 51 61 66 57 42 39 36 36 38 30 23 10 12 18 36 61 40 53 48 61 53 64 66 59 58 62 63 58 42 26 14 35 22 21 24 27 25
13 15 24 30 36 41 43 53 62 56 41 34 35 39 32 26 19 8 7 8 46 50 44 47 48 58 56 55 63 60 52 65 72 61 35 31 36 40 25 30 34 30 27
13 11 20 25 29 36 44 53 60 52 35 35 35 27 30 23 10 8 9 28 33 33 44 45 41 55 49 52 61 54 62 64 63 61 51 28 36 46 57 46 39 33 28
14 6 15 20 24 31 41 52 57 44 31 30 31 21 23 23 19 20 17 35 27 30 33 28 35 37 41 49 56 65 54 56 57 60 52 29 43 41 59 57 45 42 34
17 4 8 16 22 30 37 50 53 42 34 28 28 23 17 18 23 24 24 27 27 29 33 35 33 38 29 39 50 50 59 58 52 55 46 33 20 26 37 53 53 46 32
19 8 2 13 18 25 31 41 49 40 30 27 29 27 25 26 31 23 25 25 24 19 24 28 26 34 35 38 22 39 38 50 40 30 15 11 20 28 43 37 41 44 23
23 14 5 8 12 18 24 32 46 44 31 23 22 19 30 35 35 25 17 22 36 33 24 19 22 17 14 28 30 59 54 41 35 32 34 41 40 40 37 33 37 33 31
27 19 9 6 8 11 17 19 29 39 39 27 25 23 26 38 44 40 29 28 36 30 25 26 25 42 57 55 46 53 46 49 53 47 45 42 39 35 32 29 26 21 16
34 23 15 10 9 6 13 16 21 29 34 38 37 34 30 30 50 46 49 52 52 63 72 69 66 65 67 58 63 61 62 53 52 44 35 35 30 27 24 22 19 16 13
38 30 21 15 14 9 16 17 19 25 25 32 40 53 58 57 63 72 74 74 72 71 73 73 78 75 71 62 58 60 50 48 44 40 34 32 27 24 23 20 16 13 13
46 39 32 25 22 17 18 17 16 21 26 30 34 40 46 51 52 56 59 64 67 69 66 67 64 63 60 58 55 51 48 45 42 38 33 34 27 25 23 19 15 13 12
56 49 41 34 30 27 20 20 25 24 24 25 33 38 42 47 49 51 50 52 52 55 58 58 57 55 52 49 48 45 44 43 42 38 34 32 27 23 21 19 16 14 11
65 61 53 45 41 37 34 30 27 28 30 26 20 28 34 38 40 41 42 42 40 43 44 46 48 48 46 45 44 43 43 41 40 37 34 29 25 22 20 19 16 14 10
74 69 62 55 52 47 45 41 35 31 32 25 22 29 33 33 35 37 39 39 41 41 40 40 42 43 44 41 39 38 39 38 35 32 31 27 24 22 21 19 16 13 10
81 79 76 68 61 56 53 54 47 39 35 34 34 34 35 39 39 39 39 40 39 39 39 38 36 38 41 39 37 34 34 33 33 30 28 26 24 20 17 14 9 5 5
82 84 80 75 68 62 60 57 56 50 46 44 41 38 38 39 42 40 39 39 38 36 34 36 36 36 39 38 36 34 31 29 28 26 24 21 18 15 12 12 13 13 13
72 86 85 79 75 72 68 67 65 61 58 56 51 45 43 42 42 43 41 40 40 40 37 35 36 36 37 37 34 32 28 25 24 22 18 14 12 8 7 7 8 10 13
64 75 83 83 83 81 77 77 75 74 72 68 61 54 50 46 44 44 44 40 38 38 40 39 38 35 31 32 31 30 26 21 18 18 16 11 7 3 2 5 10 14 18
57 65 74 84 85 87 85 85 83 84 76 71 67 63 59 53 48 46 45 43 42 42 42 40 38 37 35 31 28 26 27 25 22 19 16 15 14 11 8 8 10 15 21
40 60 70 78 86 93 93 91 91 80 78 77 76 72 67 64 59 54 50 49 47 46 44 42 41 38 35 35 35 33 30 27 25 24 21 20 17 15 13 13 15 17 20
27 47 64 70 83 93 97 97 86 85 82 82 82 79 75 71 66 63 60 59 56 53 50 47 43 41 41 40 39 37 34 32 30 27 25 24 23 22 20 19 18 19 22
28 32 55 67 79 88 97 95 89 84 86 88 87 84 82 79 75 72 68 65 63 61 58 57 54 51 49 46 43 42 42 40 37 35 33 33 32 30 28 26 26 25 25
33 34 44 61 72 78 90 96 95 90 88 91 91 91 89 86 83 80 77 74 69 64 62 59 55 54 54 48 44 44 43 41 40 40 42 43 40 38 34 32 31 28 28
38 43 48 53 65 74 80 93 98 96 91 93 97 97 95 93 89 84 80 77 72 68 65 63 58 53 52 47 47 48 49 49 49 51 53 50 46 43 40 38 34 30 30
Wind_Direction_850mb
254 298 318 325 335 340 341 349 344 342 343 351 344 346 334 319 304 283 263 251 217 196 204 190 207 189 174 202 202 199 179 175 179 167 173 168 174 172 188 199 210 220 241
248 294 320 329 344 345 347 352 349 340 347 352 351 353 344 335 320 274 234 237 198 185 192 194 194 178 195 200 201 193 171 178 184 174 172 144 143 156 167 203 220 219 155
257 301 323 336 347 347 352 357 349 350 348 355 355 346 335 355 357 305 223 212 190 176 170 198 204 202 193 198 203 194 189 176 179 183 180 164 161 142 132 142 155 145 146
252 302 323 340 352 351 353 358 353 350 355 354 0 353 344 348 334 45 95 208 167 181 174 183 197 199 192 197 205 197 199 182 183 182 193 193 192 168 125 127 130 137 129
235 296 327 348 355 354 357 360 354 352 4 1 358 359 3 357 46 116 109 159 161 173 176 193 199 193 200 199 197 203 193 188 187 186 189 188 179 173 153 132 129 127 126
214 282 331 354 359 2 4 4 0 4 8 12 360 8 17 37 74 108 122 156 164 168 173 190 194 201 204 209 214 197 188 189 194 191 190 176 167 185 167 150 141 135 130
205 210 334 2 8 13 15 12 9 15 16 16 7 22 44 63 86 101 115 145 148 164 173 178 191 188 203 215 204 204 201 196 201 190 182 186 192 164 168 163 149 141 138
199 185 9 11 21 25 26 19 23 22 20 38 24 22 68 83 81 104 109 122 123 125 141 173 170 195 210 184 188 185 163 138 130 128 126 165 194 191 187 175 161 147 157
200 182 140 36 40 34 39 33 41 39 30 34 51 30 82 93 97 97 124 121 113 148 141 147 179 174 168 196 198 132 125 125 117 126 150 137 133 136 148 164 174 174 162
205 192 166 92 75 42 48 45 53 53 51 52 78 73 73 92 104 102 100 136 126 119 126 150 136 138 120 110 102 116 113 127 131 137 135 133 136 140 143 155 180 201 213
206 198 185 138 121 82 66 69 60 72 73 72 80 89 96 95 111 114 119 120 122 119 117 116 116 118 117 120 118 131 133 136 130 131 134 134 131 136 142 149 162 178 184
205 200 196 167 144 147 116 90 79 92 94 92 90 92 96 101 109 115 119 121 122 124 122 121 122 122 123 126 124 129 128 130 131 132 137 128 124 127 123 121 127 137 142
202 200 199 188 162 173 147 121 103 112 96 94 97 99 98 100 96 100 106 110 110 111 112 115 122 122 124 130 132 132 132 131 127 123 124 118 119 119 117 120 120 117 115
204 203 201 196 182 179 176 154 132 129 114 113 107 107 105 105 107 104 106 107 112 117 120 122 124 125 127 127 126 126 127 125 122 122 121 114 115 111 107 102 100 97 102
206 207 205 199 192 186 185 182 169 147 147 151 146 134 126 123 118 118 121 119 118 118 119 121 123 124 126 125 127 128 126 123 120 120 115 112 109 105 100 93 89 87 86
213 210 209 204 200 195 190 192 186 179 184 186 179 159 145 137 134 132 130 130 129 127 127 128 127 129 126 124 124 123 122 122 119 117 115 114 111 99 89 79 73 67 56
220 214 211 208 205 200 196 195 190 188 184 181 180 174 164 156 151 149 145 142 141 139 137 135 133 134 129 128 129 128 126 125 123 119 114 101 93 88 78 71 69 64 32
229 225 218 211 208 205 202 200 195 192 188 184 186 185 178 172 164 161 157 153 150 146 146 143 142 141 139 139 140 139 135 131 123 111 101 96 86 74 61 40 20 6 354
245 238 227 217 209 206 204 202 201 195 193 192 191 194 192 188 180 172 172 167 163 159 158 156 157 158 155 148 147 146 142 136 127 122 115 104 90 66 41 0 335 328 322
243 238 231 218 213 207 206 205 204 200 198 196 194 195 198 197 193 186 181 179 176 173 173 174 171 168 170 164 159 156 159 157 151 150 154 148 145 164 266 311 319 319 316
244 238 231 220 214 209 208 209 207 208 202 198 197 198 198 201 200 198 193 190 190 190 188 187 185 184 182 178 176 179 182 184 185 185 188 196 205 216 238 270 291 306 315
251 232 229 221 215 211 210 212 213 210 206 202 201 201 202 201 202 203 204 201 201 202 201 200 199 198 196 196 197 197 200 203 207 213 215 219 225 231 245 265 282 298 316
261 234 227 222 216 213 213 216 217 213 208 207 207 205 204 205 206 206 207 210 210 209 210 212 211 211 212 211 211 212 213 215 221 225 230 237 244 252 259 270 286 302 311
255 236 228 223 218 216 216 220 220 218 213 211 210 210 209 208 209 211 212 214 217 217 217 218 217 217 219 219 221 223 224 225 227 229 234 240 245 250 258 271 281 293 306
260 237 229 228 226 222 220 219 221 221 218 216 215 214 214 214 214 216 218 218 220 226 230 230 228 227 229 231 232 235 236 238 236 236 240 243 246 250 256 264 274 283 294
265 251 240 234 232 229 226 222 221 223 221 220 218 217 217 217 218 220 222 223 225 227 229 232 235 238 239 236 237 238 238 239 239 242 246 248 249 251 257 262 269 278 290